Notices

Please take our survey and provide feedback: https://eccc.sondage-survey.ca/f/LanguageSelection.aspx?s=442ca660-fcf1-47c0-95a9-59707d6fd709

Please note that the IDF dataset is available through this link: Intensity-Duration-Frequency (IDF) Files .

Hourly Data Report for November 07, 2020

SHEARWATER RCS
NOVA SCOTIA
Current Station Operator: ECCC - MSC

44°37'47.000" N
63°30'48.000" W
24.00 m
8205092
71264
AAW

Download Data

Hourly Data (November 2020)
Hourly Data Report for November 7, 2020
TIME
LST
Temp Definition
°C
Dew Point Definition
°C
Rel Hum Definition
%
Precip. Amount Definition
mm

Wind Dir Definition
10's deg

Wind Spd Definition
km/h
Visibility Definition
km
Stn Press Definition
kPa
Hmdx Definition


Wind Chill Definition


Weather Definition


00:00 12.0 11.1 94 0.0 23 17   101.38     LegendNANA
01:00 11.7 10.8 94 0.0 22 14   101.28     LegendNANA
02:00 11.7 10.8 94 0.0 23 12   101.25     LegendNANA
03:00 11.5 10.5 93 0.0 24 9   101.22     LegendNANA
04:00 11.1 10.0 93 0.0 23 10   101.18     LegendNANA
05:00 11.1 9.8 92 0.0 24 8   101.19     LegendNANA
06:00 10.8 9.4 91 0.0 25 7   101.22     LegendNANA
07:00 10.9 8.8 87 0.0 24 6   101.24     LegendNANA
08:00 12.0 9.0 82 0.0 25 11   101.33     LegendNANA
09:00 13.3 9.1 76 0.0 26 6   101.36     LegendNANA
10:00 15.3 9.1 67 0.0 28 11   101.40     LegendNANA
11:00 17.7 8.2 54 0.0 29 15   101.38     LegendNANA
12:00 18.8 7.5 48 0.0 30 14   101.40     LegendNANA
13:00 19.2 6.9 45 0.0 29 15   101.41     LegendNANA
14:00 19.9 6.2 41 0.0 31 13   101.38     LegendNANA
15:00 19.5 6.0 41 0.0 31 13   101.44     LegendNANA
16:00 18.4 5.8 43 0.0 32 11   101.50     LegendNANA
17:00 15.7 6.6 55 0.0 35 12   101.57     LegendNANA
18:00 13.8 6.6 61 0.0 36 10   101.64     LegendNANA
19:00 12.8 6.6 66 0.0 35 8   101.70     LegendNANA
20:00 11.7 7.0 73 0.0 1 11   101.81     LegendNANA
21:00 9.2 4.5 72 0.0 2 5   101.92     LegendNANA
22:00 8.2 2.9 69 0.0 2 8   102.00     LegendNANA
23:00 7.6 3.2 74 0.0 4 6   102.01     LegendNANA

Notes on Data Quality.

Legend

  • E = Estimated
  • M = Missing
  • NA = Not Available*
  • [empty] = Indicates an unobserved value
Date modified: